Location: Eekst
(53.0191°N, 6.7366°E)
Time: 07:51:26
(UTC+00:00)

Cosmos 2333 Rocket - Pass Details

Date: 15 May 2026
Orbit: 841 x 862 km, 70.8° (Epoch: 5 June)

Event Time Altitude Azimuth Distance (km) Brightness Sun altitude
Rises 21:34:21 0° 322° (NW) 3,424 7.2 -13.8°
Reaches altitude 10° 21:37:06 10° 311° (NW) 2,487 5.8 -14.0°
Maximum altitude 21:41:50 28° 255° (WSW) 1,567 3.7 -14.3°
Enters shadow 21:46:30 10° 199° (SSW) 2,465 4.2 -14.6°
